Flag for Canada Weather past 2 weeks in Kelowna, British Columbia, Canada

Now
61 °F

Sunny.


Feels Like: 61 °F
Forecast: 57 / 94 °F
Wind: No wind

Location: Kelowna Airport

Current Time: Aug 1, 2015 at 7:30:10 AM

Latest Report: Aug 1, 2015 at 7:00 AM


Visibility: 9 mi

Pressure: 29.97 "Hg

Humidity: 55%

Dew point: 45 °F

Location of KelownaLocation

Historic Weather in Kelowna — Graph

°F

Kelowna temperature yesterday

Maximum temperature yesterday: 97 °F (at 4:00 PM)
Minimum temperature yesterday: 54 °F (at 4:00 AM)
Average temperature yesterday: 76 °F

Past Weeks' High & Low Weather Summary

 TemperatureHumidityPressure
High97 °F (Jul 31, 4:00 PM)100% (Jul 27, 4:00 AM)30.23 "Hg (Jul 27, 4:00 AM)
Low46 °F (Jul 17, 6:00 AM)11% (Jul 31, 2:00 PM)29.69 "Hg (Jul 20, 4:00 PM)
Average70 °F47%29.95 "Hg
* Reported Jul 17 6:00 AM — Aug 1 6:00 AM, Kelowna, Weather by CustomWeather, © 2015

Note: Actual official high and low records may vary slightly from our data, if they occured in-between our weather recording intervals... More about our weather records

Advertising

Kelowna weather history for previous 24 hours

 ConditionsComfort  
Time TempWeatherWind HumidityBarometerVisibility
6:00 AM
Sat, Aug 1
55 °FClear.2 mph59%29.96 "Hg9 mi
5:00 AM54 °FClear.No wind67%29.94 "Hg9 mi
4:00 AM55 °FClear.5 mph63%29.94 "Hg9 mi
3:00 AM57 °FClear.No wind59%29.93 "Hg9 mi
2:00 AM59 °FClear.No wind51%29.93 "Hg9 mi
1:00 AM61 °FClear.No wind48%29.92 "Hg9 mi
12:00 AM68 °FClear.3 mph35%29.91 "Hg9 mi
11:00 PM
Fri, Jul 31
68 °FClear.7 mph40%29.91 "Hg9 mi
10:00 PM72 °FClear.2 mph38%29.90 "Hg9 mi
9:00 PM75 °FSunny.3 mph39%29.88 "Hg9 mi
8:00 PM86 °FSunny.6 mph27%29.86 "Hg9 mi
7:00 PM93 °FSunny.8 mph14%29.86 "Hg9 mi
6:00 PM95 °FSunny.12 mph14%29.86 "Hg9 mi
5:00 PM97 °FSunny.8 mph13%29.89 "Hg9 mi
4:00 PM97 °FSunny.5 mph13%29.91 "Hg9 mi
3:02 PM95 °FSunny.3 mph12%29.94 "Hg6 mi
2:00 PM95 °FSunny.5 mph11%29.97 "Hg9 mi
1:00 PM91 °FSunny.5 mph13%29.99 "Hg3 mi
12:48 PM90 °FSunny.3 mph18%29.99 "Hg4 mi
12:00 PM86 °FSunny.5 mph24%30.02 "Hg8 mi
11:00 AM82 °FSunny.8 mph30%30.05 "Hg9 mi
10:00 AM77 °FSunny.3 mph36%30.07 "Hg9 mi
9:00 AM73 °FSunny.2 mph41%30.09 "Hg9 mi
8:00 AM68 °FSunny.2 mph49%30.09 "Hg9 mi
7:00 AM59 °FSunny.2 mph72%30.09 "Hg9 mi
Weather by CustomWeather, © 2015

See weather overviewHow to use our weather pages